Port Clinton Carl R Keller Fi, OH

8:44 PM EDT on April 25, 2017 (GMT -0400)
Keller

Weather History for KPCW - October, 2013

Change the Weather History Date:

Monday, October 21, 2013

  Actual Average (KTTF) Record (KTTF)
Temperature  
Mean Temperature 56 °F -  
Max Temperature 65 °F 57 °F 80 °F (2007)
Min Temperature 46 °F 40 °F 24 °F (1952)
Degree Days  
Heating Degree Days 8    
Growing Degree Days 6 (Base 50)    
Moisture  
Dew Point 45 °F    
Average Humidity 70    
Maximum Humidity 94    
Minimum Humidity 52    
Precipitation  
Precipitation 0.00 in - - ()
Sea Level Pressure  
Sea Level Pressure 29.88 in    
Wind  
Wind Speed 11 mph ()    
Max Wind Speed 18 mph    
Max Gust Speed -    
Visibility 9.9 miles    
Events Rain    
Averages and records for this station are not official NWS values.
T = Trace of Precipitation, MM = Missing Value Source: Averaged Metar Reports

Daily Weather History Graph

Daily Weather History Graph

Search for Another Location

Airport or City:

Trip Planner

Search our weather history database for the weather conditions in past years. The results will help you decide how hot, cold, wet, or windy it might be!

Date:

Astronomy

Oct. 21, 2013 Rise Set
Actual Time 7:50 AM EDT 6:40 PM EDT
Civil Twilight 7:22 AM EDT 7:09 PM EDT
Nautical Twilight 6:50 AM EDT 7:41 PM EDT
Astronomical Twilight 6:17 AM EDT 8:13 PM EDT
Moon 8:31 PM EDT (10/21) 10:26 AM EDT (10/21)
Length of Visible Light 11h 46m
Length of Day
10h 50m
Waning Gibbous, 93% of the Moon is Illuminated
Oct 21
Waning Gibbous
Oct 26
Last Quarter
Nov 3
New
Nov 10
First Quarter
Nov 17
Full

Hourly Weather History & Observations

Time (EDT) Temp. Dew Point Humidity Pressure Visibility Wind Dir Wind Speed Gust Speed Precip Events Conditions
12:13 AM 55.4 °F 42.8 °F 63% 29.91 in 10.0 mi SSW 13.8 mph - N/A   Partly Cloudy
12:33 AM 55.4 °F 42.8 °F 63% 29.90 in 10.0 mi SSW 12.7 mph - N/A   Clear
12:53 AM 54.0 °F 43.0 °F 66% 29.91 in 10.0 mi SSW 11.5 mph - N/A   Clear
1:13 AM 53.6 °F 42.8 °F 67% 29.90 in 10.0 mi SSW 11.5 mph - N/A   Clear
1:33 AM 53.6 °F 42.8 °F 67% 29.91 in 10.0 mi SSW 12.7 mph - N/A   Partly Cloudy
1:53 AM 54.0 °F 43.0 °F 66% 29.91 in 10.0 mi SSW 12.7 mph - N/A   Mostly Cloudy
2:13 AM 53.6 °F 42.8 °F 67% 29.90 in 10.0 mi SSW 12.7 mph - N/A   Scattered Clouds
2:33 AM 53.6 °F 42.8 °F 67% 29.90 in 10.0 mi SSW 12.7 mph - N/A   Scattered Clouds
2:53 AM 52.9 °F 43.0 °F 69% 29.90 in 10.0 mi SSW 13.8 mph - N/A   Mostly Cloudy
3:13 AM 53.6 °F 42.8 °F 67% 29.90 in 10.0 mi SSW 11.5 mph - N/A   Scattered Clouds
3:33 AM 53.6 °F 42.8 °F 67% 29.90 in 10.0 mi SSW 12.7 mph - N/A   Clear
3:53 AM 52.0 °F 41.9 °F 69% 29.90 in 10.0 mi SSW 12.7 mph - N/A   Clear
4:13 AM 51.8 °F 42.8 °F 71% 29.90 in 10.0 mi SSW 11.5 mph - N/A   Mostly Cloudy
4:33 AM 51.8 °F 42.8 °F 71% 29.90 in 10.0 mi SSW 12.7 mph - N/A   Mostly Cloudy
4:53 AM 52.0 °F 41.9 °F 69% 29.90 in 10.0 mi SSW 11.5 mph - N/A   Overcast
5:13 AM 51.8 °F 42.8 °F 71% 29.90 in 10.0 mi SSW 10.4 mph - N/A   Scattered Clouds
5:34 AM 51.8 °F 42.8 °F 71% 29.91 in 10.0 mi SSW 10.4 mph - N/A   Clear
5:53 AM 50.9 °F 41.9 °F 71% 29.90 in 10.0 mi SSW 10.4 mph - N/A   Clear
6:13 AM 51.8 °F 42.8 °F 71% 29.90 in 10.0 mi SSW 11.5 mph - N/A   Clear
6:34 AM 51.8 °F 42.8 °F 71% 29.90 in 10.0 mi SSW 12.7 mph - N/A   Clear
6:53 AM 50.9 °F 41.9 °F 71% 29.90 in 10.0 mi SSW 9.2 mph - N/A   Clear
7:13 AM 51.8 °F 42.8 °F 71% 29.90 in 10.0 mi SSW 10.4 mph - N/A   Clear
7:33 AM 50.0 °F 42.8 °F 76% 29.90 in 10.0 mi SSW 9.2 mph - N/A   Clear
7:53 AM 50.0 °F 41.9 °F 74% 29.90 in 10.0 mi SSW 11.5 mph - N/A   Clear
8:13 AM 51.8 °F 42.8 °F 71% 29.91 in 10.0 mi SSW 10.4 mph - N/A   Clear
8:33 AM 51.8 °F 42.8 °F 71% 29.91 in 10.0 mi SSW 10.4 mph - N/A   Clear
8:53 AM 52.0 °F 41.9 °F 69% 29.92 in 10.0 mi SSW 10.4 mph - N/A   Clear
9:13 AM 51.8 °F 42.8 °F 71% 29.92 in 10.0 mi SSW 11.5 mph - N/A   Clear
9:33 AM 53.6 °F 42.8 °F 67% 29.92 in 10.0 mi SW 10.4 mph - N/A   Clear
9:54 AM 54.0 °F 43.0 °F 66% 29.92 in 10.0 mi SSW 12.7 mph - N/A   Clear
10:13 AM 55.4 °F 42.8 °F 63% 29.91 in 10.0 mi SW 11.5 mph - N/A   Clear
10:33 AM 55.4 °F 44.6 °F 67% 29.91 in 10.0 mi SW 11.5 mph - N/A   Clear
10:54 AM 55.9 °F 43.9 °F 64% 29.90 in 10.0 mi SW 11.5 mph - N/A   Clear
11:13 AM 55.4 °F 44.6 °F 67% 29.90 in 10.0 mi SW 11.5 mph - N/A   Clear
11:33 AM 59.0 °F 44.6 °F 59% 29.90 in 10.0 mi SW 13.8 mph - N/A   Clear
11:53 AM 57.9 °F 45.0 °F 62% 29.89 in 10.0 mi SW 11.5 mph - N/A   Clear
12:13 PM 60.8 °F 46.4 °F 59% 29.89 in 10.0 mi WSW 10.4 mph - N/A   Clear
12:33 PM 60.8 °F 46.4 °F 59% 29.89 in 10.0 mi SW 11.5 mph - N/A   Clear
12:51 PM 61.9 °F 45.9 °F 56% 29.88 in 5.0 mi WSW 12.7 mph - N/A   Haze
1:13 PM 62.6 °F 46.4 °F 55% 29.88 in 10.0 mi WSW 12.7 mph - N/A   Clear
1:33 PM 62.6 °F 46.4 °F 55% 29.87 in 10.0 mi WSW 11.5 mph - N/A   Clear
1:53 PM 63.0 °F 46.9 °F 56% 29.86 in 10.0 mi WSW 12.7 mph - N/A   Clear
2:13 PM 64.4 °F 46.4 °F 52% 29.85 in 10.0 mi WSW 12.7 mph - N/A   Clear
2:33 PM 64.4 °F 46.4 °F 52% 29.84 in 10.0 mi SW 11.5 mph - N/A   Clear
2:53 PM 65.8 °F 47.8 °F 52% 29.83 in 10.0 mi SW 10.4 mph - N/A   Clear
3:13 PM 64.4 °F 48.2 °F 56% 29.83 in 10.0 mi WSW 11.5 mph - N/A   Clear
3:33 PM 64.4 °F 46.4 °F 52% 29.82 in 10.0 mi WSW 12.7 mph - N/A   Scattered Clouds
3:53 PM 64.4 °F 48.2 °F 56% 29.82 in 10.0 mi WSW 10.4 mph - N/A   Mostly Cloudy
4:13 PM 64.4 °F 48.2 °F 56% 29.81 in 10.0 mi WSW 13.8 mph - N/A   Overcast
4:33 PM 62.6 °F 46.4 °F 55% 29.81 in 10.0 mi WSW 13.8 mph - N/A   Overcast
4:53 PM 62.6 °F 48.2 °F 59% 29.82 in 10.0 mi West 16.1 mph - N/A Rain Light Rain
5:14 PM 57.2 °F 50.0 °F 77% 29.83 in 10.0 mi West 11.5 mph - N/A Rain Light Rain
5:33 PM 57.2 °F 51.8 °F 82% 29.84 in 10.0 mi West 10.4 mph - N/A Rain Light Rain
5:53 PM 57.2 °F 51.8 °F 82% 29.84 in 10.0 mi West 10.4 mph - N/A Rain Light Rain
6:13 PM 57.2 °F 51.8 °F 82% 29.83 in 10.0 mi WSW 10.4 mph - N/A   Overcast
6:33 PM 55.4 °F 51.8 °F 88% 29.84 in 9.0 mi WSW 9.2 mph - N/A Rain Light Rain
6:54 PM 55.4 °F 51.8 °F 88% 29.84 in 9.0 mi West 9.2 mph - N/A Rain Light Rain
7:13 PM 55.4 °F 51.8 °F 88% 29.85 in 10.0 mi West 9.2 mph - N/A Rain Light Rain
7:33 PM 53.6 °F 51.8 °F 94% 29.85 in 10.0 mi West 9.2 mph - N/A Rain Light Rain
7:53 PM 53.6 °F 51.8 °F 94% 29.85 in 8.0 mi WSW 9.2 mph - N/A Rain Light Rain
8:12 PM 53.6 °F 51.8 °F 94% 29.86 in 10.0 mi WSW 9.2 mph - N/A Rain Light Rain
8:33 PM 53.6 °F 51.8 °F 94% 29.85 in 10.0 mi West 9.2 mph - N/A   Overcast
8:52 PM 52.9 °F 50.0 °F 90% 29.85 in 10.0 mi West 11.5 mph - N/A   Overcast
9:13 PM 53.6 °F 50.0 °F 88% 29.85 in 10.0 mi WSW 9.2 mph - N/A   Overcast
9:33 PM 53.6 °F 48.2 °F 82% 29.85 in 10.0 mi West 12.7 mph - N/A   Overcast
9:49 PM 53.6 °F 48.2 °F 82% 29.86 in 10.0 mi West 9.2 mph - N/A   Overcast
10:13 PM 51.8 °F 48.2 °F 88% 29.86 in 10.0 mi West 13.8 mph - N/A   Overcast
10:33 PM 51.8 °F 46.4 °F 82% 29.87 in 10.0 mi WNW 18.4 mph - N/A   Overcast
10:53 PM 50.0 °F 42.8 °F 76% 29.87 in 10.0 mi WNW 18.4 mph - N/A   Overcast
11:02 PM 48.2 °F 42.8 °F 82% 29.88 in 10.0 mi WNW 17.3 mph - N/A   Overcast
11:33 PM 48.2 °F 37.4 °F 66% 29.88 in 10.0 mi WNW 17.3 mph - N/A   Mostly Cloudy
11:53 PM 46.9 °F 38.8 °F 73% 29.88 in 10.0 mi West 9.2 mph - N/A   Partly Cloudy